Location: Arroyo de Majatayegua
(40.5633°N, 4.4541°W)
Time: 21:08:53
(UTC+00:00)

Daily predictions for brighter satellites

Satellite Brightness Start Highest point End
(mag) Time Altitude Azimuth Time Altitude Azimuth Time Altitude Azimuth
Cosmos 1461 3.2 20:13:45 10° NNW 20:18:30 85° ENE 20:23:15 10° SSE
Cosmos 2219 Rocket 3.7 20:15:37 10° SE 20:18:45 15° E 20:21:55 10° ENE
Cosmos 1818 3.7 20:14:26 10° SSW 20:19:41 55° ESE 20:25:00 10° NE
Cosmos 2360 Rocket 2.4 20:15:29 10° S 20:20:53 50° ESE 20:26:20 10° NE
USA 215 4.1 20:21:49 10° ENE 20:27:07 26° SE 20:32:22 10° S
Atlas Centaur 2 3.1 20:23:29 10° SW 20:28:09 30° S 20:33:52 10° ESE
Cosmos 1356 Rocket 4.4 20:24:52 10° NNW 20:29:00 50° W 20:33:02 10° S
Cosmos 2150 Rocket 4.4 20:24:28 10° NNW 20:29:38 68° WSW 20:34:51 10° S
Cosmos 2333 Rocket 3.4 20:28:06 10° SSE 20:32:25 23° E 20:36:46 10° NE
Meteor 2-1 Rocket 4.4 20:27:31 10° N 20:33:20 65° ENE 20:39:12 10° SSE
MetOp-A 4.4 20:32:03 10° S 20:37:23 74° WSW 20:42:46 10° NNW
CZ-2C R/B 3.0 20:32:28 10° N 20:37:51 72° WNW 20:43:04 10° SSW
Delta 2 Rocket 3.5 20:35:07 10° WSW 20:38:20 35° S 20:41:16 11° ESE
Cosmos 1812 Rocket 3.6 20:36:46 10° N 20:41:04 59° E 20:45:19 10° SSE
SL-16 R/B 3.4 20:35:42 10° SW 20:41:09 49° WNW 20:46:40 10° NNE
GEOS 3 Rocket 4.1 20:37:36 10° NE 20:42:38 39° ESE 20:47:37 10° S
Spot 2 Rocket 4.4 20:39:25 10° SE 20:43:54 34° ENE 20:48:27 10° N
Cosmos 1602 Rocket 3.6 20:40:04 10° S 20:44:28 86° W 20:48:57 10° N
OAO 2 Rocket 3.9 20:43:25 10° WSW 20:48:24 43° S 20:53:25 10° ESE
ATLAS 5 CENTAUR R/B 1.4 20:45:15 10° SSW 20:49:18 89° SE 20:53:47 10° NE
FALCON 9 R/B 2.6 20:48:42 10° SW 20:49:40 12° SSW 20:50:34 10° S
Cosmos 2278 Rocket 4.3 20:51:35 10° NNE 20:54:05 13° NE 20:56:34 10° ENE
Meteor 2-10 Rocket 3.5 20:49:17 10° N 20:54:26 78° E 20:59:46 10° SSE
Cosmos 1709 Rocket 4.4 20:49:23 10° SSE 20:55:16 44° E 21:01:14 10° NNE
Cosmos 1125 Rocket 4.0 20:51:36 10° NNW 20:56:47 61° WSW 21:01:58 10° S
Cosmos 1844 Rocket 3.0 20:51:42 10° NNW 20:57:10 54° ENE 21:01:37 15° SE
Nadezhda 1 Rocket 4.1 20:52:54 10° N 20:59:21 79° E 21:05:42 10° S
SPOT 1/Viking Rocket 4.2 21:00:43 15° SE 21:04:32 40° ENE 21:09:20 10° N
Cosmos-2242 3.3 21:04:42 10° N 21:08:58 52° E 21:11:57 19° SSE
Cosmos 1400 Rocket 3.1 21:05:44 10° N 21:09:36 50° ENE 21:12:01 20° SSE
Resurs 01 Rocket 2.2 21:09:26 10° S 21:13:45 57° W 21:18:08 10° NNW
Terra 3.4 21:14:58 15° ESE 21:17:26 22° ENE 21:21:04 10° NNE
SAR-Lupe-2 3.9 21:17:42 10° NNE 21:21:11 46° E 21:22:58 24° SSE
Cosmos 1758 Rocket 4.2 21:25:45 10° SSW 21:30:10 57° W 21:34:37 10° N
Cosmos 1455 3.2 21:28:50 10° NNW 21:32:30 43° W 21:35:38 13° SSW
Alouette 2 Rocket 3.8 21:29:17 10° N 21:33:20 85° E 21:37:00 21° SSE
Cosmos 1328 4.3 21:30:01 10° SSW 21:33:55 60° W 21:37:52 10° N
USA 245 3.1 21:32:31 28° S 21:34:08 77° WSW 21:38:08 10° NNW
NOSS 3-3 (A) 3.8 21:30:36 10° SSW 21:36:19 77° ESE 21:42:43 10° NE
NOSS 3-3 (C) 3.8 21:30:43 10° SSW 21:36:25 76° ESE 21:42:50 10° NE
Cosmos 1538 Rocket 4.0 21:38:50 12° S 21:43:52 76° ESE 21:49:12 10° NNE
OAO 3 Rocket 4.2 21:45:32 10° WSW 21:49:46 29° SSW 21:50:39 27° S
COSMOS 2428 2.6 21:44:47 10° SSW 21:50:27 86° ESE 21:56:09 10° NNE
IRIS 3.7 21:48:26 10° W 21:51:20 75° N 21:51:22 74° N
Cosmos 2322 4.4 21:47:39 10° SW 21:53:14 55° WNW 21:58:53 10° NNE
Cosmos 1953 Rocket 4.0 21:50:02 15° SSW 21:53:28 59° W 21:57:44 10° N
Cosmos 2084 4.1 21:50:04 10° NNW 21:54:22 47° NE 21:56:03 31° ESE
Cosmos 1844 4.0 21:49:03 10° NNW 21:54:46 64° WSW 21:57:55 27° S
DELTA 2 R/B (1) 3.6 21:50:13 10° WSW 21:55:39 55° SSE 22:01:07 10° E
ATLAS 2AS CENTAUR R/B 4.2 21:50:40 10° NNW 21:57:14 31° NE 22:02:39 13° E
Cosmos 2074 Rocket 4.2 21:54:31 29° SSE 21:57:31 53° E 22:03:32 10° NNE
Cosmos 2181 Rocket 4.0 21:52:08 10° N 21:58:30 86° E 22:02:01 28° S
ERS-1 Rocket 2.9 21:56:49 32° SSE 21:59:13 90° NW 22:04:17 10° NNW
BREEZE-M DEB (TANK) 4.5 21:54:30 10° WNW 21:59:44 25° NNW 22:02:22 10° NE
ATLAS CENTAUR R/B 1.4 21:56:40 10° NNW 22:00:16 51° NE 22:00:56 43° E
Cosmos 2237 Rocket 2.7 21:59:39 33° SE 22:01:12 40° ESE 22:06:29 10° NE
Cosmos 2219 Rocket 2.4 21:56:29 10° SSW 22:02:02 69° WNW 22:07:38 10° NNE
Cosmos 1869 4.0 21:58:18 10° N 22:02:03 38° ENE 22:02:34 36° E
SPOT 5 2.9 22:02:26 35° SSE 22:04:36 88° ENE 22:09:27 10° NNW
Cosmos 2360 Rocket 4.5 22:00:34 10° WSW 22:05:09 25° NW 22:09:46 10° N
Cosmos 1842 Rocket 3.7 22:01:23 10° N 22:05:40 54° E 22:06:34 45° SE
Meteor 1-27 4.2 22:02:09 10° N 22:07:55 89° E 22:10:38 33° S
Cosmos 2344 3.9 22:05:03 29° SSE 22:08:01 39° ESE 22:14:58 10° NE
Cosmos 158 Rocket 4.5 22:09:32 35° ESE 22:09:49 35° ESE 22:14:15 10° NE
USA 215 3.3 22:03:58 10° NE 22:10:32 83° NW 22:17:05 10° SW
Cosmos 2333 Rocket 3.1 22:10:47 10° SW 22:16:16 50° WNW 22:21:51 10° NNE
Atlas Centaur 2 3.4 22:11:26 10° WSW 22:16:46 30° S 22:17:13 30° S
Cosmos 967 Rocket 4.5 22:16:43 10° SSW 22:23:12 88° NW 22:29:43 10° NNE
Cosmos 1315 Rocket 3.2 22:20:33 10° NNW 22:24:36 58° W 22:25:29 46° SW
NOSS 0 Rocket 3.8 22:22:19 24° SSW 22:26:11 84° ESE 22:32:23 10° NNE
Cosmos 1892 2.8 22:26:26 58° ENE 22:26:26 58° ENE 22:29:55 10° NNE
CARTOSAT-1 4.4 22:26:48 32° SW 22:28:08 42° W 22:32:14 10° NNW
OAO 2 Rocket 3.8 22:27:49 10° WSW 22:32:34 43° SSW 22:32:34 43° SSW
Meteor 2-2 Rocket 4.2 22:28:20 10° N 22:34:09 86° E 22:35:55 47° SSE
MTI 4.5 22:32:30 10° N 22:34:54 49° N 22:34:54 49° N
Cosmos 1408 3.6 22:37:57 36° NE 22:37:57 36° NE 22:40:28 10° NNE
Cosmos 1610 Rocket 4.5 22:36:57 43° SSE 22:39:08 73° E 22:45:30 10° N
Cosmos 2278 Rocket 2.2 22:33:28 10° NNW 22:39:10 76° ENE 22:40:40 50° SE
USA 267 3.9 22:36:39 21° E 22:41:00 52° NNE 22:47:18 10° NW
Cosmos 1680 Rocket 3.4 22:39:45 50° S 22:41:11 81° ESE 22:46:32 10° NNE
SL-16 R/B 3.0 22:46:35 33° E 22:46:35 33° E 22:51:22 10° NE
Cosmos 2221 2.9 22:47:19 10° NNW 22:51:35 52° W 22:52:05 49° WSW
Terra 2.7 22:53:51 34° SW 22:54:54 39° W 22:59:23 10° NNW
Cosmos 2184 Rocket 4.5 22:53:36 27° SW 22:56:52 55° W 23:03:03 10° N
In-Cosmos 22 Rocket 4.4 22:56:02 38° SW 22:57:52 60° WNW 23:03:08 10° N
BREEZE-M (TANK) 4.5 22:56:26 10° WSW 23:01:08 83° NNW 23:23:35 10° ENE
Cosmos 2058 3.6 23:03:48 44° W 23:04:13 46° W 23:08:13 10° N
Okean 3 Rocket 4.2 23:07:35 44° ENE 23:07:35 44° ENE 23:11:17 10° NNE
TSX-5 4.5 23:09:18 10° NW 23:12:24 49° W 23:12:24 49° W
Cosmos 1825 2.9 23:14:45 52° N 23:14:45 52° N 23:17:41 10° N
Cosmos 2218 Rocket 4.4 23:17:43 45° ESE 23:18:39 48° E 23:24:41 10° NNE
NOSS 3-4 (A) 3.8 23:13:50 10° NW 23:20:59 87° NE 23:23:28 48° SE
NOSS 3-4 (C) 3.8 23:13:57 10° NW 23:21:06 86° NE 23:23:36 48° SE
Cosmos 1624 Rocket 3.9 23:15:54 10° NNW 23:21:09 77° ENE 23:21:30 73° ESE
Cosmos 2366 rocket 4.3 23:21:57 46° ESE 23:22:52 50° E 23:28:57 10° NNE
BREEZE-M DEB (TANK) 3.9 23:24:38 10° WNW 23:27:09 26° WNW 23:27:09 26° WNW
Cosmos 2369 Rocket 4.2 23:26:27 10° N 23:30:32 20° NE 23:33:18 14° E
Cosmos 2151 3.3 23:32:17 61° NW 23:32:17 61° NW 23:36:10 10° N
Cosmos 1933 4.3 23:32:31 10° N 23:35:34 41° NE 23:35:34 41° NE
COSMOS 2455 4.0 23:33:48 10° NNW 23:39:19 35° NE 23:41:47 26° E
Thor Agena Rocket 4.1 23:36:10 10° N 23:41:04 48° WNW 23:42:04 42° WSW
Cosmos 2341 Rocket 4.1 23:40:08 53° SW 23:41:32 70° W 23:47:45 10° N
DELTA 2 R/B (1) 3.4 23:36:21 10° W 23:41:57 82° S 23:42:01 82° SSE
Cosmos 2237 Rocket 3.8 23:41:25 15° WSW 23:45:20 30° WNW 23:50:20 10° N
Spot 4 4.3 23:45:58 50° W 23:45:58 50° W 23:50:27 10° NNW
ATLAS 2AS CENTAUR R/B 2.7 23:41:28 10° NW 23:48:51 69° WSW 23:50:03 58° S
Cosmos 1371 Rocket 4.4 23:44:04 10° NNW 23:49:11 52° WSW 23:49:11 52° WSW
Cosmos 1408 Rocket 4.0 23:52:07 57° NNE 23:52:07 57° NNE 23:55:44 10° NNE
Cosmos 1151 Rocket 3.4 23:48:59 10° N 23:52:34 60° N 23:52:34 60° N
Cosmos 1782 4.4 23:50:23 10° NNE 23:53:04 28° NE 23:53:04 28° NE
Cosmos 1346 Rocket 4.1 23:55:57 34° NE 23:55:57 34° NE 23:58:26 10° NNE
